Terminal Aerodrome Forecast
Issued by NWS

Home | Current Version | Previous Version | Graphics & Text | Print | Product List | Glossary On
Versions: 1 2 3 4 5 6 7 8 9 10 11 12 13 14 15 16 17 18 19
000
FTUS43 KTOP 302323
TAFFOE
TAF
KFOE 302323Z 3100/3124 04004KT P6SM SCT020
     FM311000 04004KT P6SM VCTS SCT008 BKN025CB
     FM311800 01006KT P6SM SCT015 BKN040=

USA.gov is the U.S. government's official web portal to all federal, state and local government web resources and services.